EW4337 Weather Reports


time (UTC)temp
F
wind
direction
speed
knots
gust
knots
rain 1hr
in
rain 24hr
in
rain mn
in
humidity
%
barometer
mb
20180525201700 71 162 0.0 0.0 0.00 0.01 0.01 71 1019.7
20180525200700 71 163 0.0 0.0 0.00 0.01 0.01 70 1019.7
20180525195700 72 163 0.0 0.0 0.00 0.01 0.01 69 1019.6
20180525194700 72 163 0.0 0.0 0.00 0.01 0.01 68 1019.6
20180525193700 73 163 0.0 0.0 0.00 0.01 0.01 66 1019.5
20180525192701 74 163 0.0 0.0 0.00 0.01 0.01 64 1019.4
20180525191700 74 163 0.0 0.0 0.00 0.01 0.01 63 1019.3
20180525190701 74 163 0.0 0.0 0.00 0.01 0.01 62 1019.3
20180525185700 75 163 0.0 0.0 0.00 0.01 0.01 60 1019.1
20180525184700 75 117 0.0 0.0 0.00 0.01 0.01 58 1019.0
20180525183700 76 117 0.0 0.0 0.00 0.01 0.01 57 1019.0
20180525182700 76 117 0.0 0.0 0.00 0.01 0.01 56 1018.9
20180525181700 76 117 0.0 0.0 0.00 0.01 0.01 56 1018.9
20180525180700 76 117 0.0 0.0 0.00 0.01 0.01 55 1018.9
20180525175700 77 115 0.0 0.0 0.00 0.01 0.01 54 1018.7
20180525173700 77 85 0.0 0.0 0.00 0.01 0.01 53 1018.7
20180525172700 77 115 0.0 0.0 0.00 0.01 0.01 53 1018.6
20180525171701 77 132 0.0 0.0 0.00 0.01 0.01 53 1018.6
20180525170700 78 153 0.0 0.0 0.00 0.01 0.01 52 1018.7
20180525165700 78 133 0.0 0.0 0.00 0.01 0.01 52 1018.8
20180525164700 78 118 0.0 0.0 0.00 0.01 0.01 52 1018.6
20180525163700 78 107 0.0 0.0 0.00 0.01 0.01 52 1018.7
20180525162700 78 125 0.0 0.0 0.00 0.01 0.01 52 1018.8
20180525161701 78 130 0.0 0.0 0.00 0.01 0.01 53 1018.9
20180525160700 78 120 0.0 0.0 0.00 0.01 0.01 52 1018.8
20180525155700 78 125 0.0 0.0 0.00 0.01 0.01 51 1018.9
20180525154700 79 114 0.0 0.0 0.00 0.01 0.01 50 1018.9
20180525153701 80 112 0.0 0.0 0.00 0.01 0.01 49 1019.0
20180525152701 80 119 0.0 0.0 0.00 0.01 0.01 49 1019.0
20180525151701 80 128 0.0 0.0 0.00 0.01 0.01 49 1018.9
20180525150701 80 122 0.0 0.0 0.00 0.01 0.01 49 1018.9
20180525145700 79 105 0.0 0.0 0.00 0.01 0.01 50 1018.9
20180525144701 81 118 0.0 0.0 0.00 0.01 0.01 49 1018.9
20180525143701 81 105 0.0 0.0 0.00 0.01 0.01 48 1019.0
20180525142700 80 104 0.0 0.0 0.00 0.01 0.01 49 1019.0
20180525141701 82 103 0.0 0.0 0.00 0.01 0.01 47 1019.0
20180525140701 81 98 0.0 0.0 0.00 0.01 0.01 49 1019.0
20180525135701 81 130 0.0 0.0 0.00 0.01 0.01 50 1019.0
20180525134700 78 109 0.0 0.0 0.00 0.01 0.01 52 1019.1
20180525133701 77 116 0.0 0.0 0.00 0.01 0.01 54 1019.1
20180525132701 77 111 0.0 0.0 0.00 0.01 0.01 53 1019.2
20180525131701 78 122 0.0 0.0 0.00 0.01 0.01 54 1019.1
20180525130701 78 135 0.0 0.0 0.00 0.01 0.01 54 1019.1
20180525125701 77 95 0.0 0.0 0.00 0.01 0.01 55 1019.0
20180525124701 77 148 0.0 0.0 0.00 0.01 0.01 55 1019.0
20180525123701 78 109 0.0 0.0 0.00 0.01 0.01 53 1019.1
20180525122701 79 97 0.0 0.0 0.00 0.01 0.01 52 1019.1
20180525121701 77 118 0.0 0.0 0.00 0.01 0.01 54 1019.2
20180525120701 76 128 0.0 0.0 0.00 0.01 0.01 55 1019.2
20180525115701 77 99 0.0 0.0 0.00 0.01 0.01 56 1019.2
20180525114701 77 107 0.0 0.0 0.00 0.01 0.01 55 1019.3
20180525113701 75 101 0.0 0.0 0.00 0.01 0.01 57 1019.3
20180525112702 76 140 0.0 0.0 0.00 0.01 0.01 56 1019.4
20180525111701 75 109 0.0 0.0 0.00 0.01 0.01 57 1019.4
20180525110701 76 77 0.0 0.0 0.00 0.01 0.01 55 1019.4
20180525105701 77 89 0.0 0.0 0.00 0.01 0.01 55 1019.4
20180525104701 75 96 0.0 0.0 0.00 0.01 0.01 57 1019.5
20180525103701 73 79 0.0 0.0 0.00 0.01 0.01 60 1019.6
20180525102701 71 86 0.0 0.0 0.00 0.01 0.01 62 1019.6
20180525101701 71 111 0.0 0.0 0.00 0.01 0.01 61 1019.7
20180525100702 70 100 0.0 0.0 0.00 0.01 0.01 63 1019.8
20180525095702 69 90 0.0 0.0 0.00 0.01 0.01 63 1019.8
20180525094701 69 108 0.0 0.0 0.00 0.01 0.01 65 1019.8
20180525093701 68 100 0.0 0.0 0.00 0.01 0.01 65 1019.7
20180525092702 68 91 0.0 0.0 0.00 0.01 0.01 66 1019.7
20180525091701 67 52 0.0 0.0 0.00 0.01 0.01 69 1019.7
20180525090701 67 80 0.0 0.0 0.00 0.01 0.01 70 1019.8
20180525085701 67 83 0.0 0.0 0.00 0.01 0.01 70 1019.6
20180525084702 66 103 0.0 0.0 0.00 0.01 0.01 72 1019.6
20180525083702 66 104 0.0 0.0 0.00 0.01 0.01 73 1019.6
20180525082702 66 111 0.0 0.0 0.00 0.01 0.01 72 1019.6
20180525081701 66 113 0.0 0.0 0.00 0.01 0.01 72 1019.5
20180525080702 66 105 0.0 0.0 0.00 0.01 0.01 72 1019.5
20180525075703 66 130 0.0 0.0 0.00 0.01 0.01 72 1019.5
20180525074702 66 101 0.0 0.0 0.00 0.01 0.01 71 1019.5
20180525073702 66 99 0.0 0.0 0.00 0.01 0.01 71 1019.5
20180525072702 66 118 0.0 0.0 0.00 0.01 0.01 71 1019.5
20180525071702 65 108 0.0 0.0 0.00 0.01 0.01 71 1019.4
20180525070702 65 93 0.0 0.0 0.00 0.01 0.01 71 1019.5
20180525065702 65 81 0.0 0.0 0.00 0.01 0.01 72 1019.5
20180525064702 65 88 0.0 0.0 0.00 0.01 0.01 72 1019.4
20180525063702 64 98 0.0 0.0 0.00 0.01 0.01 71 1019.2
20180525062702 65 94 0.0 0.0 0.00 0.01 0.01 72 1019.3
20180525061702 64 91 0.0 0.0 0.00 0.01 0.01 72 1019.2
20180525060702 64 93 0.0 0.0 0.00 0.01 0.01 73 1019.2
20180525055702 64 96 0.0 0.0 0.00 0.01 0.01 74 1019.1
20180525054702 64 100 0.0 0.0 0.00 0.01 0.01 74 1019.1
20180525053702 64 95 0.0 0.0 0.00 0.01 0.01 75 1019.1
20180525052702 63 115 0.0 0.0 0.00 0.01 0.01 76 1019.0
20180525051702 63 99 0.0 0.0 0.00 0.01 0.01 76 1019.0
20180525050703 63 85 0.0 0.0 0.00 0.01 0.01 77 1018.9
20180525045703 63 109 0.0 0.0 0.00 0.01 0.01 77 1018.8
20180525044702 63 86 0.0 0.0 0.00 0.01 0.01 78 1018.8
20180525043702 62 103 0.0 0.0 0.00 0.01 0.01 78 1018.8
20180525042703 62 110 0.0 0.0 0.00 0.01 0.01 78 1018.8
20180525041703 62 90 0.0 0.0 0.00 0.01 0.01 78 1018.7
20180525040702 62 83 0.0 0.0 0.00 0.01 0.01 77 1018.6
20180525035702 63 91 0.0 0.0 0.00 0.01 0.01 77 1018.5
20180525034703 63 93 0.0 0.0 0.00 0.01 0.01 77 1018.5
20180525033702 63 110 0.0 0.0 0.00 0.01 0.01 77 1018.4
20180525032702 63 99 0.0 0.0 0.00 0.01 0.01 76 1018.5
20180525031703 63 101 0.0 0.0 0.00 0.01 0.01 76 1018.5
20180525030702 63 88 0.0 0.0 0.00 0.01 0.01 76 1018.4
20180525025703 63 83 0.0 0.0 0.00 0.01 0.01 76 1018.4
20180525024703 63 88 0.0 0.0 0.00 0.01 0.01 76 1018.4
20180525023702 63 59 0.0 0.0 0.00 0.01 0.01 75 1018.4
20180525022703 64 91 0.0 0.0 0.00 0.01 0.01 75 1018.4
20180525021703 64 62 0.0 0.0 0.00 0.01 0.01 75 1018.4
20180525020703 64 63 0.0 0.0 0.00 0.01 0.01 78 1018.5
20180525015703 64 77 0.0 0.0 0.01 0.01 0.01 80 1018.6
20180525014702 64 58 0.0 0.0 0.01 0.01 0.01 81 1018.6
20180525013702 64 93 0.0 0.0 0.01 0.01 0.01 81 1018.7
20180525012703 64 69 0.0 0.0 0.01 0.01 0.01 81 1018.7
20180525011703 64 74 0.0 0.0 0.01 0.01 0.01 81 1018.7
20180525010703 64 60 0.0 0.0 0.01 0.01 0.01 81 1018.8
20180525005703 64 80 0.0 0.0 0.00 0.00 0.00 81 1018.9
20180525004703 65 76 0.0 0.0 0.00 0.00 0.00 80 1019.0
20180525003703 65 84 0.0 0.0 0.00 0.00 0.00 79 1019.1
20180525002703 65 81 0.0 0.0 0.00 0.00 0.00 79 1019.2
20180525001703 65 100 0.0 0.0 0.00 0.00 0.00 79 1019.3
20180525000704 65 94 0.0 0.0 0.00 0.00 0.00 78 1019.2
20180524235704 65 97 0.0 0.0 0.00 0.00 0.00 78 1019.4
20180524234703 65 101 0.0 0.0 0.00 0.00 0.00 78 1019.4
20180524233703 65 106 0.0 0.0 0.00 0.00 0.00 78 1019.5
20180524232704 65 110 0.0 0.0 0.00 0.00 0.00 79 1019.5
20180524231703 65 105 0.0 0.0 0.00 0.00 0.00 80 1019.6
20180524230703 65 114 0.0 0.0 0.00 0.00 0.00 81 1019.6
20180524225703 65 89 0.0 0.0 0.00 0.00 0.00 82 1019.5
20180524224703 65 93 0.0 0.0 0.00 0.00 0.00 81 1019.7
20180524223703 65 113 0.0 0.0 0.00 0.00 0.00 81 1019.6
20180524222704 65 113 0.0 0.0 0.00 0.00 0.00 81 1019.5
20180524221704 65 124 0.0 0.0 0.00 0.00 0.00 80 1019.5
20180524220703 66 147 0.0 0.0 0.00 0.00 0.00 77 1019.5
20180524215703 67 141 0.0 0.0 0.00 0.00 0.00 74 1019.5
20180524214704 67 131 0.0 0.0 0.00 0.00 0.00 72 1019.5
20180524213704 68 142 0.0 0.0 0.00 0.00 0.00 70 1019.6
20180524212704 68 151 0.0 0.0 0.00 0.00 0.00 70 1019.6
20180524211703 68 97 0.0 0.0 0.00 0.00 0.00 70 1019.6
20180524210703 68 93 0.0 0.0 0.00 0.00 0.00 70 1019.5
20180524205704 68 103 0.0 0.0 0.00 0.00 0.00 70 1019.5
20180524204703 68 128 0.0 0.0 0.00 0.00 0.00 71 1019.5
20180524203704 68 127 0.0 0.0 0.00 0.00 0.00 71 1019.5
20180524202704 68 127 0.0 0.0 0.00 0.00 0.00 71 1019.5